World > North America > United States > Indiana > Fishers   City of Fishers, Indiana

Fishers, IN Hourly Weather Updates

Feedback E-mail the Weather

Quick Clicks

Fishers, IN Weather Maps

°F °C°F °C
Fishers Weather Map
UTC Time: 6/17/2024, 00:28
Your Time:

Fishers, IN Regional Weather

Expires:202406170100;;143743
ASUS43 KIND 170010
RWRIN 

WEATHER ROUNDUP FOR INDIANA
NATIONAL WEATHER SERVICE INDIANAPOLIS IN
800 PM EDT SUN JUN 16 2024

NOTE: "FAIR" INDICATES FEW OR NO CLOUDS BELOW 12,000 FEET WITH NO
SIGNIFICANT WEATHER AND/OR OBSTRUCTIONS TO VISIBILITY.

* - STATION DOES NOT REPORT WEATHER SUCH AS PRECIPITATION OR FOG.

+ - STATION NOT QUALITY CONTROLLED BY THE NATIONAL WEATHER SERVICE.
    USE DATA WITH CAUTION...ESPECIALLY DEWPOINT AND RELATIVE
    HUMIDITY OBSERVATIONS.


INZ030>032-037>040-046>048-054>057-064-065-170100-
CENTRAL INDIANA
  
CITY           SKY/WX    TMP DP  RH WIND       PRES   REMARKS
ANDERSON       SUNNY     88  58  36 S9        29.95F                  
COLUMBUS       SUNNY     90  66  45 S10       29.95F HX  92           
FISHERS *+     SUNNY     90  65  43 S10       29.95S HX  92           
FRANKFORT +    SUNNY    -15 N/A N/A S12       29.91F WCI -36          
GREENWOOD *+     N/A     90  62  38 S12       29.96S HX  90           
6HR MIN TEMP:  89; 6HR MAX TEMP:  93;                                

INDIANAPOLIS   MOSUNNY   88  67  49 S14       29.94S HX  91           
6HR MIN TEMP:  87; 6HR MAX TEMP:  91;                                

-EAGLE CREEK   SUNNY     90  67  46 VRB7G17   29.93S HX  93           
6HR MIN TEMP:  88; 6HR MAX TEMP:  91;                                

KOKOMO +       SUNNY     89  67  47 S15       29.94S HX  92           
6HR MIN TEMP:  88; 6HR MAX TEMP:  92;                                

MT COMFORT *+  SUNNY     89  66  46 S10       29.96S HX  91           
SHELBYVILLE    SUNNY     92  66  42 S10       29.95S HX  94           
6HR MIN TEMP:  90; 6HR MAX TEMP:  95;                                

ZIONSVILLE +   SUNNY     88  67  49 S14       29.95S HX  90           
6HR MIN TEMP:  87; 6HR MAX TEMP:  91;                                


$$


SKY/WX - Weather  TMP - Temperature  DP - Dew Point  RH - Humidity
WIND - Wind Direction/Speed PRES - Barometric Pressure VSB - Visibility
WCI - Wind Chill Index E13G22 Wind - East Wind 13 mph/Gusts of 22 mph

Trending Headlines

Trending Entertainment Headlines

Fishers Radar Loop

Use the map search tool if you want to place a location marker on the radar map...

Fishers Quick Facts

National Two Day Weather Forecast


E-mail the Fishers Weather Forecast

Voice your opinion or tell us about page issues...